FW0209 Weather Reports


time (UTC)temp
F
wind
direction
speed
knots
gust
knots
rain 1hr
in
rain 24hr
in
rain mn
in
humidity
%
barometer
mb
20260507234518 58 205 0.0 0.0 0.00 0.08 0.00 76 1014.7
20260507233020 58 206 0.0 0.0 0.00 0.08 0.00 76 1015.0
20260507231519 58 208 0.0 0.0 0.00 0.08 0.00 76 1015.1
20260507230016 59 210 0.0 0.9 0.00 0.08 0.00 75 1015.2
20260507224514 59 209 0.0 0.0 0.00 0.08 0.02 75 1015.4
20260507223033 59 210 0.0 0.0 0.00 0.08 0.02 75 1015.3
20260507221511 59 210 0.0 0.0 0.00 0.08 0.02 75 1015.3
20260507220031 59 210 0.0 0.0 0.00 0.08 0.02 74 1015.4
20260507214524 59 211 0.0 0.0 0.00 0.08 0.02 74 1015.4
20260507213022 59 209 0.0 1.7 0.00 0.08 0.02 74 1015.6
20260507211520 59 209 0.0 0.0 0.00 0.08 0.02 73 1015.3
20260507210019 59 211 0.0 0.0 0.00 0.08 0.02 71 1015.3
20260507204514 60 212 0.0 0.0 0.00 0.08 0.02 69 1015.3
20260507203051 60 209 0.0 0.0 0.00 0.08 0.02 68 1015.4
20260507201527 61 215 0.0 0.0 0.00 0.08 0.02 67 1015.4
20260507200028 62 219 0.0 0.0 0.00 0.08 0.02 66 1015.4
20260507194607 63 220 0.0 0.0 0.00 0.08 0.02 64 1015.4
20260507193018 63 221 0.0 0.0 0.00 0.08 0.02 63 1015.3
20260507191541 63 219 0.0 2.6 0.00 0.08 0.02 63 1015.2
20260507190018 64 222 0.0 4.3 0.00 0.08 0.02 62 1015.1
20260507184530 65 221 1.7 6.1 0.00 0.08 0.02 62 1014.9
20260507183035 65 220 0.0 0.9 0.00 0.08 0.02 61 1014.9
20260507181528 66 220 2.6 7.8 0.00 0.08 0.02 60 1015.0
20260507180023 66 222 0.0 1.7 0.00 0.08 0.02 59 1015.0
20260507174524 67 223 0.0 7.0 0.00 0.08 0.02 57 1014.8
20260507173043 68 221 1.7 7.0 0.00 0.08 0.02 55 1014.7
20260507171523 68 259 0.0 1.7 0.00 0.08 0.02 52 1014.7
20260507170040 69 224 0.0 0.9 0.00 0.08 0.02 51 1014.5
20260507164551 69 224 0.9 8.7 0.00 0.08 0.02 52 1014.5
20260507163018 70 222 0.0 0.9 0.00 0.08 0.02 51 1014.5
20260507161540 71 225 0.0 1.7 0.00 0.08 0.02 50 1014.4
20260507160049 71 225 0.0 1.7 0.00 0.08 0.02 49 1014.4
20260507154548 70 221 0.0 6.1 0.00 0.08 0.02 50 1014.4
20260507153028 71 222 1.7 7.8 0.00 0.08 0.02 41 1014.5
20260507151527 71 222 0.0 2.6 0.00 0.08 0.02 40 1014.5
20260507150018 71 219 0.0 7.0 0.00 0.08 0.02 43 1014.5
20260507144512 72 215 0.0 8.7 0.00 0.08 0.02 48 1014.6
20260507143051 70 207 0.0 4.3 0.00 0.08 0.02 53 1014.7
20260507141519 69 206 2.6 8.7 0.00 0.08 0.02 51 1014.9
20260507140017 69 206 1.7 8.7 0.00 0.08 0.02 53 1015.1
20260507134526 69 206 0.0 0.9 0.00 0.08 0.02 53 1015.1
20260507133021 70 204 0.0 1.7 0.00 0.08 0.02 50 1015.3
20260507131516 71 207 0.9 8.7 0.00 0.08 0.02 49 1015.3
20260507130014 71 205 0.0 7.0 0.00 0.08 0.02 50 1015.4
20260507124537 70 203 0.0 8.7 0.00 0.08 0.02 51 1015.6
20260507123014 70 207 0.9 7.0 0.00 0.08 0.02 53 1015.6
20260507121529 70 211 4.3 7.0 0.00 0.08 0.02 52 1015.8
20260507120022 69 209 5.2 8.7 0.00 0.08 0.02 53 1015.8
20260507114511 70 236 5.2 9.6 0.00 0.08 0.02 51 1015.8
20260507113029 70 228 3.5 8.7 0.00 0.08 0.02 52 1015.9
20260507111530 70 227 1.7 6.1 0.00 0.08 0.02 53 1015.9
20260507110025 68 184 2.6 7.8 0.00 0.08 0.02 55 1015.9
20260507104527 69 227 0.0 0.0 0.00 0.08 0.02 53 1016.0
20260507103105 68 182 0.0 0.0 0.00 0.08 0.02 55 1016.2
20260507101543 66 190 0.0 0.0 0.00 0.08 0.02 56 1016.4
20260507100021 65 187 0.0 0.0 0.00 0.08 0.02 57 1016.6
20260507094522 66 189 0.0 0.0 0.00 0.08 0.02 59 1016.5
20260507093021 65 184 0.0 0.0 0.00 0.08 0.02 60 1016.6
20260507091535 64 184 0.0 0.0 0.00 0.08 0.02 63 1016.6
20260507090013 63 190 0.0 0.0 0.00 0.08 0.02 65 1016.8
20260507084549 63 191 0.0 0.0 0.00 0.08 0.02 65 1017.0
20260507083011 63 188 0.0 0.0 0.00 0.08 0.02 67 1017.0
20260507081530 62 188 0.0 0.0 0.00 0.08 0.02 67 1017.0
20260507080022 63 183 0.0 0.0 0.00 0.08 0.02 68 1017.1
20260507074523 62 189 0.0 0.0 0.00 0.16 0.02 70 1017.0
20260507073015 61 188 0.0 0.0 0.00 0.16 0.02 72 1016.9
20260507071515 59 186 0.0 0.0 0.00 0.16 0.02 76 1016.9
20260507070016 57 184 0.0 0.0 0.00 0.16 0.02 81 1016.9
20260507064514 55 192 0.0 0.0 0.00 0.16 0.02 84 1017.0
20260507063015 54 157 0.9 5.2 0.00 0.16 0.02 86 1016.9
20260507061512 53 149 1.7 4.3 0.00 0.16 0.02 87 1017.0
20260507060046 53 147 0.0 2.6 0.00 0.16 0.02 88 1017.0
20260507054545 52 145 0.0 0.9 0.00 0.16 0.02 88 1017.0
20260507053020 52 149 0.0 4.3 0.00 0.16 0.02 88 1016.9
20260507051538 52 147 1.7 4.3 0.00 0.16 0.02 88 1016.9
20260507050011 52 146 0.0 3.5 0.00 0.16 0.02 88 1016.7
20260507044530 51 146 1.7 3.5 0.00 0.16 0.02 88 1016.6
20260507043029 51 147 0.0 0.0 0.04 0.16 0.02 88 1016.5
20260507041532 51 148 2.6 5.2 0.04 0.16 0.02 87 1016.4
20260507040049 51 147 1.7 5.2 0.04 0.16 0.02 87 1016.3
20260507034527 51 147 4.3 7.8 0.04 0.24 0.02 86 1016.2
20260507033028 52 146 2.6 7.8 0.00 0.20 0.01 86 1016.2
20260507031526 52 146 3.5 6.1 0.00 0.20 0.01 85 1016.2
20260507030045 52 148 3.5 8.7 0.00 0.20 0.01 83 1016.0
20260507024547 53 148 4.3 6.1 0.00 0.28 0.01 81 1015.9
20260507023046 53 148 1.7 6.1 0.00 0.28 0.01 80 1016.0
20260507021524 53 154 3.5 6.1 0.00 0.28 0.01 80 1015.9
20260507020027 54 153 2.6 7.0 0.00 0.28 0.01 80 1016.1
20260507014526 54 152 1.7 4.3 0.00 0.28 0.01 80 1015.9
20260507013027 54 151 0.9 5.2 0.00 0.28 0.01 79 1015.9
20260507011525 54 152 0.9 2.6 0.00 0.28 0.01 78 1015.8
20260507010022 54 152 0.9 2.6 0.00 0.28 0.01 78 1015.9
20260507004524 54 151 1.7 4.3 0.00 0.28 0.01 78 1015.9
20260507003016 54 152 0.0 1.7 0.00 0.28 0.01 78 1015.8
20260507001517 54 152 0.0 5.2 0.00 0.28 0.01 77 1015.8
20260507000049 54 152 0.9 6.1 0.04 0.28 0.01 77 1016.0